Dewpoint
53 54 55 54 55 57 60 61 60 66 68 67 67 67 67 67 66 63 60 60 59 63 65 66 66 66 66 65 64 63 61 60 60
51 52 52 54 54 55 58 61 63 65 66 67 67 67 68 66 66 66 62 60 62 63 63 63 64 65 65 64 63 61 60 59 60
50 51 51 52 54 54 55 56 58 59 61 63 66 67 67 66 66 66 65 62 62 63 63 64 64 64 63 63 62 60 59 60 60
49 50 50 51 51 52 52 53 54 55 56 56 59 63 67 65 65 65 66 64 63 60 61 64 65 64 63 62 61 59 60 58 62
48 49 51 51 51 51 51 51 52 52 52 52 54 56 61 65 65 65 65 65 65 62 59 64 64 64 64 63 63 60 59 60 62
47 49 51 51 51 51 51 51 51 50 49 50 52 53 53 59 65 65 65 66 66 65 62 62 65 65 65 64 64 61 61 60 61
48 48 49 51 51 50 51 51 50 49 47 47 49 50 49 50 52 61 65 66 65 65 65 64 65 66 65 65 65 62 60 60 61
47 47 48 49 49 48 48 48 48 49 49 49 49 49 49 50 51 53 59 63 65 65 64 65 65 66 66 65 65 64 62 60 60
47 48 49 48 48 49 50 50 49 49 49 49 48 48 49 49 49 51 55 55 61 63 64 65 65 65 66 66 65 65 63 61 61
48 49 49 48 49 49 49 49 50 50 50 49 49 49 49 49 49 50 53 54 54 60 62 63 65 65 65 65 66 65 64 63 63
48 49 48 48 49 49 49 50 50 51 51 51 51 50 49 49 49 50 51 53 54 56 60 60 63 65 65 65 65 66 65 65 63
48 49 48 48 49 50 50 50 50 50 51 51 51 51 51 50 49 50 50 51 54 56 56 57 59 62 65 65 65 66 65 65 64
48 49 48 48 49 49 49 49 49 49 50 50 51 52 52 50 50 50 50 51 52 54 54 54 57 60 63 65 65 65 66 65 65
47 49 48 48 48 49 49 48 49 49 50 50 51 51 51 50 50 50 50 51 52 53 53 55 58 60 62 65 65 65 65 65 65
47 48 48 47 47 47 48 48 49 50 50 51 51 50 50 50 52 52 53 54 54 55 54 56 58 60 61 63 64 66 65 66 64
46 48 47 47 46 46 47 46 48 49 50 50 50 49 49 52 52 55 55 54 55 57 58 58 60 62 62 63 64 64 64 64 62
46 47 46 46 46 45 45 45 46 48 48 49 49 46 46 49 51 55 57 57 58 58 58 60 61 61 60 60 60 61 61 61 62
46 46 46 46 46 45 44 45 44 45 46 46 49 46 45 47 50 54 55 55 57 57 56 56 57 59 60 60 60 60 60 60 61
44 46 46 46 46 45 44 43 43 44 44 45 47 49 50 47 47 50 54 55 55 55 55 54 54 55 56 56 57 59 61 61 62
41 44 45 46 46 45 44 42 42 42 43 43 44 45 48 51 49 47 48 53 54 53 52 51 51 51 52 53 54 56 58 59 60
Wind_Speed
11 11 11 11 11 12 13 11 10 11 11 11 12 13 14 14 14 12 12 12 11 12 13 12 10 10 10 9 9 8 9 8 8
11 11 11 10 11 11 12 11 10 10 11 10 12 13 12 15 16 14 13 14 15 15 14 15 15 13 13 12 12 11 11 10 9
11 11 12 11 11 11 11 12 12 11 12 12 13 13 13 12 16 16 14 16 18 19 18 18 18 17 16 15 14 14 14 13 12
12 12 12 12 12 11 11 11 11 11 12 12 13 14 13 14 14 15 15 16 19 21 21 20 22 20 18 18 17 16 16 15 14
13 13 13 12 11 11 11 11 11 11 11 12 13 14 12 11 14 15 16 18 21 23 23 22 23 23 21 20 19 18 18 17 16
11 11 12 13 12 12 12 12 11 11 9 10 11 11 7 9 11 13 15 21 24 26 26 24 24 23 23 22 22 20 20 19 18
9 9 11 12 12 12 13 12 11 9 8 8 9 7 9 9 10 12 16 22 25 28 29 26 25 24 24 25 24 23 22 21 20
8 8 8 9 11 9 11 11 8 10 8 8 8 9 9 9 10 13 16 21 26 28 30 30 28 27 25 26 27 25 24 23 22
9 8 9 10 10 11 9 8 10 10 10 10 10 10 10 10 11 14 17 21 23 26 28 31 32 30 27 29 28 28 26 25 24
8 9 9 10 11 10 11 11 11 11 12 12 11 12 12 13 12 13 17 22 24 25 26 27 32 33 34 31 30 30 29 27 26
8 9 10 11 11 11 10 10 11 11 10 11 12 14 14 14 14 14 15 20 24 26 26 25 26 32 35 35 33 31 30 29 27
7 7 9 10 11 11 10 9 9 10 11 14 14 13 14 13 15 15 15 17 19 23 24 24 25 27 35 36 34 33 30 29 28
6 6 8 9 9 9 8 10 11 12 13 17 16 15 13 14 16 15 14 14 15 14 18 21 24 25 29 29 35 34 31 29 28
6 6 7 9 9 9 10 12 12 12 13 16 17 15 12 12 13 14 14 14 13 11 14 20 20 18 21 23 30 30 26 24 26
7 6 7 7 8 9 10 12 12 12 14 17 17 15 10 9 12 12 12 11 10 11 14 13 15 15 9 13 21 26 26 21 4
7 6 7 6 7 8 9 9 11 9 15 11 16 8 7 6 11 12 10 7 9 8 11 11 10 6 6 12 11 11 11 8 10
8 7 7 6 7 8 8 7 7 5 11 7 8 9 7 15 7 13 14 13 10 12 13 7 7 8 8 8 8 5 3 10 18
9 8 6 7 5 7 8 7 7 7 7 12 3 5 4 16 5 9 12 13 11 12 10 12 12 10 8 4 9 4 4 9 14
9 8 8 7 6 7 6 5 5 4 7 7 6 6 7 4 8 9 9 11 11 12 11 12 14 12 12 14 17 18 15 3 6
9 8 8 8 6 7 7 7 4 4 4 4 5 7 9 0 5 6 14 6 9 8 7 8 8 8 9 10 14 17 15 15 16
Wind_Direction
1 5 5 1 358 354 349 328 314 322 292 272 267 266 253 235 231 227 223 222 222 225 224 220 221 208 200 204 200 197 206 200 195
356 358 359 1 358 359 358 357 346 340 339 300 272 268 265 253 237 229 226 225 225 227 228 226 225 224 218 215 211 208 211 209 200
358 357 354 353 352 354 352 355 355 349 344 333 326 295 269 263 243 236 232 229 227 233 233 234 230 223 222 218 214 213 206 204 199
10 7 359 354 349 350 347 343 344 346 346 346 347 341 302 270 255 248 243 232 232 236 236 240 231 222 218 217 217 213 207 203 199
14 9 5 4 1 354 349 341 334 333 334 335 338 339 318 279 260 251 248 236 235 237 237 237 229 223 217 214 211 212 213 207 202
3 2 5 5 1 357 355 350 342 336 327 325 326 327 311 309 281 264 250 241 243 241 236 234 233 230 221 210 208 208 215 211 207
6 3 359 358 360 353 350 346 342 343 330 319 321 308 302 296 289 279 265 253 250 246 242 235 233 231 225 216 209 210 211 214 207
1 356 357 354 355 351 344 342 340 331 326 324 316 306 298 288 284 279 283 277 269 256 246 240 235 232 227 220 214 212 209 211 212
358 353 353 350 352 344 346 340 329 326 321 308 305 302 297 292 287 281 277 281 277 271 259 247 239 233 229 221 216 212 212 209 212
347 349 352 352 350 351 347 344 337 331 328 317 308 302 298 289 283 282 277 274 274 268 267 258 249 238 231 225 217 214 211 211 208
344 344 350 353 350 346 343 338 329 326 323 322 322 308 296 290 285 280 280 275 275 275 265 255 256 246 235 227 217 213 212 210 211
337 339 342 347 342 340 340 346 335 332 332 324 320 311 302 294 289 283 276 277 271 274 264 264 262 257 240 229 221 212 209 211 212
335 333 339 337 338 335 340 346 343 336 331 326 321 311 306 299 293 287 279 275 271 273 272 270 268 271 264 245 229 218 204 206 209
330 325 329 338 337 342 341 339 337 333 331 327 321 316 310 306 306 301 290 279 274 279 276 284 281 260 259 251 243 225 211 209 214
326 319 323 339 340 344 347 339 336 327 336 327 323 318 308 293 320 302 289 277 286 283 278 284 285 262 283 243 252 224 208 198 99
309 304 317 333 334 333 341 336 338 341 350 334 340 317 315 326 332 334 304 317 311 289 290 264 265 319 318 266 268 212 197 178 230
296 293 312 322 326 334 341 357 340 322 349 340 317 344 336 340 313 2 3 6 43 29 14 38 87 63 45 18 26 54 135 210 187
285 289 298 301 304 316 327 335 352 334 328 341 315 329 324 321 324 10 22 22 29 53 31 39 45 74 97 80 51 28 259 234 221
284 281 276 283 295 303 310 321 323 333 325 335 340 291 269 302 322 323 7 20 34 42 47 47 42 40 55 59 58 49 48 72 82
287 274 272 272 274 279 285 293 304 301 298 320 328 325 325 261 297 315 335 345 12 22 35 61 62 70 67 60 68 73 58 55 73